Location: Cahoon Acres
(40.8736°N, 111.8994°W)
Time: 11:56:32
(UTC+00:00)

SR - Pass Details

Date: 12 June 2020
Orbit: 583 x 872 km, 66.7° (Epoch: 14 July)

Event Time Altitude Azimuth Distance (km) Brightness Sun altitude
Rises 20:18:09 0° 237° (WSW) 3,240 ? 69.4°
Reaches altitude 10° 20:20:56 10° 249° (WSW) 2,265 ? 69.1°
Maximum altitude 20:25:22 28° 308° (NW) 1,309 ? 68.6°
Drops below altitude 10° 20:29:31 10° 8° (N) 2,111 ? 68.1°
Sets 20:32:02 0° 21° (NNE) 2,980 ? 67.8°
